DW2893 Weather Reports


Display with metric or nautical units.
time (UTC)temp
F
wind
direction
speed
MPH
gust
MPH
rain 1hr
in
rain 24hr
in
rain mn
in
humidity
%
barometer
mb
20210305064308 60 152 11.0 22.0 0.00 0.00 0.00 50 1011.5
20210305063807 60 156 9.0 22.0 0.00 0.00 0.00 49 1011.5
20210305063308 60 156 10.0 17.0 0.00 0.00 0.00 49 1011.5
20210305062849 60 144 10.0 16.0 0.00 0.00 0.00 48 1011.7
20210305062030 60 135 9.0 18.0 0.00 0.00 0.00 48 1011.8
20210305061321 60 147 9.0 16.0 0.00 0.00 0.00 48 1011.8
20210305060308 61 129 9.0 20.0 0.00 0.00 0.00 47 1011.8
20210305055922 61 137 8.0 13.0 0.00 0.00 0.00 47 1012.2
20210305055643 61 140 10.0 20.0 0.00 0.00 0.00 46 1012.2
20210305054822 61 140 8.0 15.0 0.00 0.00 0.00 46 1012.2
20210305054306 61 163 7.0 13.0 0.00 0.00 0.00 46 1012.2
20210305053808 61 137 8.0 15.0 0.00 0.00 0.00 46 1012.2
20210305052852 61 138 7.0 14.0 0.00 0.00 0.00 46 1012.1
20210305052615 61 137 7.0 15.0 0.00 0.00 0.00 46 1012.1
20210305051830 61 147 9.0 15.0 0.00 0.00 0.00 45 1012.2
20210305051307 61 140 10.0 17.0 0.00 0.00 0.00 45 1012.2
20210305050821 62 143 6.0 17.0 0.00 0.00 0.00 45 1012.2
20210305045901 62 151 8.0 14.0 0.00 0.00 0.00 45 1012.5
20210305045707 62 138 8.0 13.0 0.00 0.00 0.00 44 1012.5
20210305044840 62 146 9.0 16.0 0.00 0.00 0.00 44 1012.5
20210305043810 62 145 7.0 15.0 0.00 0.00 0.00 44 1012.5
20210305041838 62 145 7.0 12.0 0.00 0.00 0.00 43 1012.2
20210305041310 62 131 8.0 15.0 0.00 0.00 0.00 43 1012.2
20210305040819 62 140 9.0 17.0 0.00 0.00 0.00 42 1012.2
20210305040441 62 139 9.0 18.0 0.00 0.00 0.00 42 1012.3
20210305040023 63 137 9.0 20.0 0.00 0.00 0.00 42 1012.3
20210305035308 63 159 9.0 14.0 0.00 0.00 0.00 42 1012.3
20210305034314 63 143 9.0 18.0 0.00 0.00 0.00 42 1012.3
20210305033808 63 138 7.0 17.0 0.00 0.00 0.00 41 1012.3
20210305033308 63 135 9.0 15.0 0.00 0.00 0.00 41 1012.3
20210305032417 63 147 10.0 20.0 0.00 0.00 0.00 41 1012.3
20210305031309 63 136 7.0 17.0 0.00 0.00 0.00 40 1012.2
20210305030306 63 133 7.0 16.0 0.00 0.00 0.00 40 1012.3
20210305025958 63 125 9.0 16.0 0.00 0.00 0.00 40 1012.4
20210305024808 63 134 7.0 18.0 0.00 0.00 0.00 40 1012.4
20210305024306 64 136 9.0 16.0 0.00 0.00 0.00 40 1012.4
20210305023805 64 150 7.0 14.0 0.00 0.00 0.00 40 1012.4
20210305022937 64 126 6.0 13.0 0.00 0.00 0.00 40 1012.6
20210305022755 64 124 6.0 13.0 0.00 0.00 0.00 39 1012.7
20210305021855 64 133 9.0 14.0 0.00 0.00 0.00 39 1012.6
20210305020807 64 135 7.0 17.0 0.00 0.00 0.00 40 1012.6
20210305020311 65 141 10.0 14.0 0.00 0.00 0.00 39 1012.5
20210305020030 65 141 8.0 15.0 0.00 0.00 0.00 39 1012.5
20210305015723 65 132 9.0 15.0 0.00 0.00 0.00 39 1012.5
20210305014935 65 141 7.0 14.0 0.00 0.00 0.00 39 1012.5
20210305013805 65 141 8.0 14.0 0.00 0.00 0.00 39 1012.8
20210305013326 65 135 9.0 18.0 0.00 0.00 0.00 39 1012.8
20210305012952 66 138 7.0 16.0 0.00 0.00 0.00 39 1012.9
20210305012821 66 150 9.0 14.0 0.00 0.00 0.00 39 1012.5
20210305010306 66 135 7.0 14.0 0.00 0.00 0.00 40 1012.4
20210305005930 66 128 10.0 15.0 0.00 0.00 0.00 39 1012.4
20210305005748 66 136 8.0 15.0 0.00 0.00 0.00 40 1012.0
20210305004305 66 123 7.0 14.0 0.00 0.00 0.00 40 1012.0
20210305003808 66 135 10.0 15.0 0.00 0.00 0.00 40 1011.9
20210305003305 67 121 9.0 16.0 0.00 0.00 0.00 40 1012.0
20210305002947 67 125 9.0 17.0 0.00 0.00 0.00 39 1012.3
20210305002659 67 126 9.0 14.0 0.00 0.00 0.00 40 1012.3
20210305001832 67 129 6.0 12.0 0.00 0.00 0.00 39 1012.3
20210305000810 67 118 10.0 18.0 0.00 0.00 0.00 39 1012.0
20210305000459 67 119 6.0 20.0 0.00 0.00 0.00 39 1012.0
20210304235828 68 127 10.0 18.0 0.00 0.00 0.00 38 1012.6
20210304234313 69 127 11.0 20.0 0.00 0.00 0.00 36 1012.6
20210304233805 69 122 9.0 15.0 0.00 0.00 0.00 36 1012.6
20210304233309 69 122 10.0 20.0 0.00 0.00 0.00 35 1012.6
20210304231940 69 143 9.0 16.0 0.00 0.00 0.00 34 1012.5
20210304231320 70 132 9.0 18.0 0.00 0.00 0.00 34 1012.5
20210304230314 71 128 9.0 20.0 0.00 0.00 0.00 34 1012.4
20210304230113 71 107 9.0 22.0 0.00 0.00 0.00 34 1012.4
20210304225839 71 111 9.0 23.0 0.00 0.00 0.00 34 1012.9
20210304224835 71 130 9.0 17.0 0.00 0.00 0.00 35 1012.9
20210304223805 72 135 8.0 16.0 0.00 0.00 0.00 34 1012.9
20210304222953 72 133 9.0 18.0 0.00 0.00 0.00 33 1013.1
20210304220805 73 156 11.0 22.0 0.00 0.00 0.00 33 1013.3
20210304220306 73 125 14.0 23.0 0.00 0.00 0.00 33 1013.3
20210304220130 73 125 10.0 20.0 0.00 0.00 0.00 33 1013.3
20210304220028 72 126 10.0 16.0 0.00 0.00 0.00 35 1013.3
20210304215027 71 113 10.0 22.0 0.00 0.00 0.00 35 1013.3
20210304214304 72 138 13.0 20.0 0.00 0.00 0.00 36 1013.3
20210304213312 72 128 7.0 17.0 0.00 0.00 0.00 36 1013.5
20210304212925 72 140 13.0 21.0 0.00 0.00 0.00 36 1013.5
20210304212653 73 137 11.0 20.0 0.00 0.00 0.00 35 1013.6
20210304211841 73 155 15.0 24.0 0.00 0.00 0.00 34 1013.6
20210304210814 75 144 7.0 17.0 0.00 0.00 0.00 34 1013.8
20210304205934 74 154 15.0 21.0 0.00 0.00 0.00 33 1014.4
20210304205842 74 155 13.0 24.0 0.00 0.00 0.00 34 1014.4
20210304204932 74 160 14.0 24.0 0.00 0.00 0.00 34 1014.4
20210304203827 74 157 14.0 24.0 0.00 0.00 0.00 34 1014.4
20210304203611 74 172 14.0 23.0 0.00 0.00 0.00 34 1014.4
20210304203234 74 152 16.0 24.0 0.00 0.00 0.00 35 1014.5
20210304203009 74 137 12.0 22.0 0.00 0.00 0.00 34 1014.5
20210304202001 73 133 16.0 25.0 0.00 0.00 0.00 34 1014.9
20210304200804 74 158 13.0 20.0 0.00 0.00 0.00 34 1014.9
20210304200138 73 129 11.0 23.0 0.00 0.00 0.00 36 1015.3
20210304195853 74 151 12.0 20.0 0.00 0.00 0.00 36 1015.3
20210304194838 74 136 11.0 20.0 0.00 0.00 0.00 36 1015.3
20210304194306 74 152 9.0 18.0 0.00 0.00 0.00 36 1015.3
20210304193804 74 153 9.0 20.0 0.00 0.00 0.00 37 1015.4
20210304193346 73 152 10.0 21.0 0.00 0.00 0.00 38 1015.6
20210304193115 72 154 10.0 20.0 0.00 0.00 0.00 38 1015.9
20210304191938 72 150 12.0 22.0 0.00 0.00 0.00 38 1015.9
20210304191308 72 145 10.0 20.0 0.00 0.00 0.00 38 1016.3
20210304190804 72 126 9.0 21.0 0.00 0.00 0.00 39 1016.3
20210304190038 72 134 8.0 20.0 0.00 0.00 0.00 39 1016.6
20210304185843 72 134 10.0 18.0 0.00 0.00 0.00 38 1016.6
20210304184925 72 130 10.0 21.0 0.00 0.00 0.00 38 1016.7
20210304184314 71 128 9.0 15.0 0.00 0.00 0.00 40 1016.7
20210304183319 71 164 13.0 21.0 0.00 0.00 0.00 38 1016.8
20210304182901 71 167 9.0 20.0 0.00 0.00 0.00 39 1016.8
20210304182720 71 147 11.0 20.0 0.00 0.00 0.00 39 1016.7
20210304181838 71 140 10.0 15.0 0.00 0.00 0.00 39 1017.1
20210304181306 70 134 10.0 18.0 0.00 0.00 0.00 40 1017.1
20210304180806 70 157 12.0 20.0 0.00 0.00 0.00 40 1017.1
20210304180336 70 166 11.0 17.0 0.00 0.00 0.00 40 1017.3
20210304180042 70 121 12.0 20.0 0.00 0.00 0.00 40 1017.3
20210304175807 71 157 9.0 20.0 0.00 0.00 0.00 40 1017.3
20210304174307 69 161 13.0 20.0 0.00 0.00 0.00 39 1017.8
20210304172648 68 128 9.0 15.0 0.00 0.00 0.00 41 1018.0
20210304171904 69 132 12.0 18.0 0.00 0.00 0.00 40 1018.2
20210304171304 69 140 7.0 14.0 0.00 0.00 0.00 40 1018.5
20210304170859 68 152 10.0 18.0 0.00 0.00 0.00 41 1018.5
20210304170051 68 154 9.0 16.0 0.00 0.00 0.00 41 1018.7
20210304163818 67 136 9.0 14.0 0.00 0.00 0.00 43 1018.9
20210304163356 66 162 7.0 12.0 0.00 0.00 0.00 44 1018.9
20210304163240 66 177 9.0 14.0 0.00 0.00 0.00 44 1018.9
20210304162454 66 183 9.0 13.0 0.00 0.00 0.00 45 1018.9
20210304161309 66 182 6.0 12.0 0.00 0.00 0.00 46 1018.9
20210304160859 64 181 6.0 14.0 0.00 0.00 0.00 47 1018.9
20210304160414 64 166 9.0 12.0 0.00 0.00 0.00 48 1018.8
20210304160200 63 177 9.0 15.0 0.00 0.00 0.00 48 1019.2
20210304155350 63 168 10.0 13.0 0.00 0.00 0.00 49 1018.9
20210304153422 62 166 9.0 16.0 0.00 0.00 0.00 50 1019.4
20210304152944 61 173 7.0 12.0 0.00 0.00 0.00 52 1019.4
20210304152245 60 188 9.0 13.0 0.00 0.00 0.00 53 1019.0
20210304150135 58 146 5.0 9.0 0.00 0.00 0.00 58 1018.5
20210304145943 57 155 5.0 9.0 0.00 0.00 0.00 59 1018.5
20210304145154 56 141 5.0 8.0 0.00 0.00 0.00 60 1018.5
20210304144308 56 156 5.0 9.0 0.00 0.00 0.00 61 1018.5
20210304143808 54 140 2.0 5.0 0.00 0.00 0.00 62 1018.5
20210304143314 54 161 3.0 6.0 0.00 0.00 0.00 64 1018.6
20210304142642 52 140 2.0 6.0 0.00 0.00 0.00 66 1018.7
20210304141808 51 120 5.0 7.0 0.00 0.00 0.00 67 1018.7
20210304140309 50 128 5.0 7.0 0.00 0.00 0.00 70 1018.9
20210304135640 47 132 2.0 5.0 0.00 0.00 0.00 76 1018.9
20210304134309 46 130 3.0 5.0 0.00 0.00 0.00 77 1018.7
20210304130335 45 127 2.0 5.0 0.00 0.00 0.00 76 1018.2
20210304125535 45 126 3.0 5.0 0.00 0.00 0.00 75 1018.1
20210304124822 45 123 3.0 5.0 0.00 0.00 0.00 75 1018.1
20210304124309 45 124 3.0 5.0 0.00 0.00 0.00 75 1018.1
20210304123314 45 131 3.0 6.0 0.00 0.00 0.00 74 1018.1
20210304123029 46 132 3.0 5.0 0.00 0.00 0.00 73 1018.2
20210304121908 46 132 1.0 3.0 0.00 0.00 0.00 73 1018.2
20210304121309 46 132 2.0 5.0 0.00 0.00 0.00 72 1018.1
20210304120812 46 133 3.0 6.0 0.00 0.00 0.00 72 1018.2
20210304115828 46 136 2.0 5.0 0.00 0.00 0.00 72 1018.1
20210304114808 46 137 2.0 6.0 0.00 0.00 0.00 72 1018.1
20210304113811 46 142 3.0 5.0 0.00 0.00 0.00 71 1018.1
20210304113311 47 142 2.0 5.0 0.00 0.00 0.00 70 1018.2
20210304111900 47 143 2.0 3.0 0.00 0.00 0.00 72 1018.1
20210304110809 47 143 2.0 5.0 0.00 0.00 0.00 69 1018.0
20210304110427 47 143 3.0 5.0 0.00 0.00 0.00 69 1017.6
20210304110233 47 139 3.0 5.0 0.00 0.00 0.00 69 1017.6
20210304105934 48 142 5.0 7.0 0.00 0.00 0.00 69 1017.7
20210304103814 48 144 3.0 5.0 0.00 0.00 0.00 67 1017.7
20210304102837 48 139 2.0 5.0 0.00 0.00 0.00 66 1017.6
20210304102626 48 138 2.0 6.0 0.00 0.00 0.00 66 1017.6
20210304101823 48 140 3.0 5.0 0.00 0.00 0.00 66 1017.8
20210304100323 49 134 5.0 8.0 0.00 0.00 0.00 65 1017.7
20210304095919 49 139 3.0 5.0 0.00 0.00 0.00 64 1017.8
20210304095650 49 139 2.0 5.0 0.00 0.00 0.00 64 1017.8
20210304094307 50 141 2.0 6.0 0.00 0.00 0.00 63 1017.7
20210304093929 50 134 3.0 6.0 0.00 0.00 0.00 62 1017.6
20210304093308 50 142 2.0 6.0 0.00 0.00 0.00 62 1017.7
20210304092859 50 131 5.0 7.0 0.00 0.00 0.00 62 1017.7
20210304091307 50 153 5.0 7.0 0.00 0.00 0.00 61 1017.7
20210304090808 50 145 4.0 8.0 0.00 0.00 0.00 61 1017.8
20210304090314 50 148 5.0 9.0 0.00 0.00 0.00 61 1017.9
20210304085850 50 148 5.0 8.0 0.00 0.00 0.00 60 1017.9
20210304085708 51 144 5.0 6.0 0.00 0.00 0.00 60 1017.9
20210304084310 51 137 3.0 6.0 0.00 0.00 0.00 59 1017.9
20210304083816 51 135 3.0 7.0 0.00 0.00 0.00 59 1018.0
20210304082617 52 141 3.0 5.0 0.00 0.00 0.00 58 1018.0
20210304081837 52 142 4.0 7.0 0.00 0.00 0.00 57 1017.9
20210304081309 52 143 4.0 7.0 0.00 0.00 0.00 57 1018.0
20210304080308 52 148 5.0 8.0 0.00 0.00 0.00 56 1018.1
20210304075807 52 142 5.0 9.0 0.00 0.00 0.00 56 1018.1
20210304075456 52 161 5.0 9.0 0.00 0.00 0.00 56 1018.2
20210304074308 52 147 5.0 8.0 0.00 0.00 0.00 56 1018.2
20210304071311 52 134 2.0 6.0 0.00 0.00 0.00 54 1018.1
20210304070808 53 134 4.0 7.0 0.00 0.00 0.00 54 1018.1
20210304070321 53 140 5.0 8.0 0.00 0.00 0.00 54 1018.1
20210304065836 53 142 4.0 7.0 0.00 0.00 0.00 53 1018.1
20210304065633 53 147 4.0 8.0 0.00 0.00 0.00 53 1018.1